Weather History for Vinton, IA

Change the Weather History Date:

Saturday, December 29, 2012

  Actual Average Record
Temperature  
Mean Temperature 12 °F -  
Max Temperature 20 °F 29 °F 62 °F (1984)
Min Temperature 5 °F 12 °F -7 °F (1976)
Degree Days  
Heating Degree Days 52    
Moisture  
Dew Point 10 °F    
Average Humidity 81    
Maximum Humidity 87    
Minimum Humidity 72    
Precipitation  
Precipitation 0.00 in - - ()
Sea Level Pressure  
Sea Level Pressure 30.12 in    
Wind  
Wind Speed 9 mph (WNW)    
Max Wind Speed 17 mph    
Max Gust Speed 23 mph    
Visibility 8 miles    
Events Snow    
Averages and records for this station are not official NWS values.
T = Trace of Precipitation, MM = Missing Value Source: NWS Daily Summary

Daily Weather History Graph

Daily Weather History Graph

Search for Another Location

Airport:

Trip Planner

Search our weather history database for the weather conditions in past years. The results will help you decide how hot, cold, wet, or windy it might be!

Date:

Astronomy

Dec. 29, 2012 Rise Set
Actual Time 7:36 AM CST 4:44 PM CST
Civil Twilight 7:04 AM CST 5:16 PM CST
Nautical Twilight 6:29 AM CST 5:51 PM CST
Astronomical Twilight 5:55 AM CST 6:25 PM CST
Moon 6:19 PM CST (12/29) 8:08 AM CST (12/29)
Length of Visible Light 10h 11m
Length of Day
9h 08m
Full, 98% of the Moon is Illuminated
Dec 29
Full
Jan 4
Last Quarter
Jan 11
New
Jan 18
First Quarter
Jan 26
Full

Hourly Weather History & Observations

Time (CST) Temp. Windchill Dew Point Humidity Pressure Visibility Wind Dir Wind Speed Gust Speed Precip Events Conditions
12:15 AM 20.3 °F 10.6 °F 16.5 °F 85% 29.98 in 7.0 mi NNW 8.1 mph - N/A   Overcast
12:35 AM 20.3 °F 10.6 °F 16.5 °F 85% 29.98 in 7.0 mi NNW 8.1 mph - N/A   Overcast
12:55 AM 20.3 °F 9.0 °F 16.5 °F 85% 29.97 in 7.0 mi NNW 10.4 mph - N/A   Overcast
1:15 AM 20.3 °F 9.0 °F 16.3 °F 85% 29.97 in 7.0 mi NNW 10.4 mph - N/A   Overcast
1:35 AM 20.3 °F 10.6 °F 16.2 °F 84% 29.98 in 10.0 mi NNW 8.1 mph - N/A   Overcast
1:55 AM 20.3 °F 10.6 °F 15.8 °F 83% 29.99 in 10.0 mi NNW 8.1 mph - N/A   Overcast
2:15 AM 20.3 °F 11.5 °F 15.8 °F 83% 29.99 in 10.0 mi NNW 6.9 mph - N/A   Overcast
2:35 AM 20.3 °F 10.6 °F 15.8 °F 83% 30.00 in 10.0 mi NNW 8.1 mph - N/A   Overcast
2:55 AM 20.3 °F 10.6 °F 15.8 °F 83% 30.01 in 10.0 mi NW 8.1 mph - N/A   Overcast
3:15 AM 20.3 °F 11.5 °F 15.8 °F 83% 30.00 in 7.0 mi NW 6.9 mph - N/A Snow Light Snow
3:35 AM 20.3 °F 12.5 °F 15.8 °F 83% 30.01 in 10.0 mi NW 5.8 mph - N/A   Mostly Cloudy
3:55 AM 20.3 °F 12.5 °F 15.8 °F 83% 30.01 in 7.0 mi NW 5.8 mph - N/A Snow Light Snow
4:15 AM 20.3 °F 9.8 °F 16.2 °F 84% 30.01 in 5.0 mi NW 9.2 mph - N/A Snow Light Snow
4:35 AM 20.3 °F 9.8 °F 16.2 °F 84% 30.02 in 5.0 mi NW 9.2 mph 17.3 mph N/A Snow Light Snow
4:55 AM 19.8 °F 9.1 °F 15.4 °F 83% 30.02 in 5.0 mi NW 9.2 mph - N/A Snow Light Snow
5:15 AM 19.0 °F 6.1 °F 14.9 °F 84% 30.02 in 4.0 mi NNW 12.7 mph - N/A Snow Light Snow
5:35 AM 19.0 °F 8.2 °F 14.7 °F 83% 30.03 in 5.0 mi NW 9.2 mph - N/A Snow Light Snow
5:55 AM 19.0 °F 6.8 °F 14.7 °F 83% 30.04 in 5.0 mi NNW 11.5 mph - N/A Snow Light Snow
6:15 AM 18.0 °F 5.4 °F 13.1 °F 81% 30.05 in 5.0 mi NW 11.5 mph - N/A Snow Light Snow
6:35 AM 17.6 °F 4.3 °F 13.1 °F 83% 30.06 in 7.0 mi NW 12.7 mph 18.4 mph N/A Snow Light Snow
6:55 AM 17.6 °F 4.3 °F 13.1 °F 83% 30.06 in 7.0 mi NW 12.7 mph 17.3 mph N/A Snow Light Snow
7:15 AM 17.6 °F 5.7 °F 13.1 °F 83% 30.07 in 7.0 mi NW 10.4 mph - N/A Snow Light Snow
7:35 AM 17.6 °F 5.0 °F 13.1 °F 83% 30.07 in 7.0 mi NW 11.5 mph 17.3 mph N/A Snow Light Snow
7:55 AM 17.6 °F 3.2 °F 12.9 °F 82% 30.08 in 10.0 mi NW 15.0 mph 20.7 mph N/A Snow Light Snow
8:15 AM 17.6 °F 2.7 °F 13.1 °F 83% 30.08 in 10.0 mi NW 16.1 mph 23.0 mph N/A   Overcast
8:35 AM 17.6 °F 6.4 °F 13.1 °F 83% 30.09 in 10.0 mi NW 9.2 mph 20.7 mph N/A   Overcast
8:55 AM 17.6 °F 5.7 °F 12.9 °F 82% 30.10 in 10.0 mi NW 10.4 mph 13.8 mph N/A   Overcast
9:15 AM 17.6 °F 3.7 °F 12.9 °F 82% 30.11 in 10.0 mi NW 13.8 mph - N/A   Overcast
9:35 AM 17.6 °F 5.7 °F 12.6 °F 81% 30.11 in 10.0 mi NW 10.4 mph 16.1 mph N/A   Overcast
9:55 AM 17.6 °F 4.3 °F 12.2 °F 79% 30.12 in 10.0 mi NW 12.7 mph 17.3 mph N/A   Overcast
10:15 AM 17.6 °F 3.7 °F 11.8 °F 78% 30.13 in 10.0 mi NW 13.8 mph - N/A   Overcast
10:35 AM 17.8 °F 3.4 °F 12.0 °F 78% 30.13 in 10.0 mi WNW 15.0 mph - N/A   Mostly Cloudy
10:55 AM 17.6 °F 3.2 °F 12.0 °F 79% 30.14 in 7.0 mi NW 15.0 mph 20.7 mph N/A Snow Light Snow
11:15 AM 17.6 °F 3.2 °F 11.3 °F 76% 30.14 in 7.0 mi NW 15.0 mph - N/A Snow Light Snow
11:35 AM 17.6 °F 5.0 °F 11.3 °F 76% 30.14 in 7.0 mi NW 11.5 mph - N/A Snow Light Snow
11:55 AM 17.6 °F 5.0 °F 11.5 °F 77% 30.13 in 7.0 mi NW 11.5 mph 17.3 mph N/A Snow Light Snow
12:15 PM 17.6 °F 3.2 °F 11.5 °F 77% 30.14 in 5.0 mi WNW 15.0 mph 19.6 mph N/A Snow Light Snow
12:35 PM 17.6 °F 3.2 °F 11.3 °F 76% 30.13 in 7.0 mi WNW 15.0 mph 18.4 mph N/A Snow Light Snow
12:55 PM 17.6 °F 2.2 °F 11.3 °F 76% 30.13 in 5.0 mi WNW 17.3 mph 21.9 mph N/A Snow Light Snow
1:15 PM 17.6 °F 3.7 °F 11.1 °F 76% 30.13 in 5.0 mi WNW 13.8 mph - N/A Snow Light Snow
1:35 PM 17.6 °F 5.0 °F 10.8 °F 75% 30.13 in 7.0 mi WNW 11.5 mph - N/A   Scattered Clouds
1:55 PM 17.6 °F 4.3 °F 10.6 °F 74% 30.13 in 7.0 mi WNW 12.7 mph - N/A   Mostly Cloudy
2:15 PM 15.3 °F 2.8 °F 8.4 °F 74% 30.14 in 7.0 mi West 10.4 mph - N/A   Overcast
2:35 PM 15.3 °F 2.8 °F 8.2 °F 74% 30.15 in 10.0 mi West 10.4 mph 17.3 mph N/A   Overcast
2:55 PM 15.3 °F 2.8 °F 7.7 °F 72% 30.15 in 10.0 mi West 10.4 mph - N/A   Scattered Clouds
3:15 PM 15.3 °F 3.5 °F 8.1 °F 73% 30.16 in 7.0 mi West 9.2 mph 16.1 mph N/A   Clear
3:35 PM 15.3 °F 5.4 °F 8.2 °F 74% 30.17 in 7.0 mi WNW 6.9 mph - N/A   Clear
3:55 PM 14.0 °F 3.9 °F 7.3 °F 75% 30.17 in 7.0 mi West 6.9 mph - N/A   Clear
4:15 PM 12.9 °F 3.8 °F 6.4 °F 75% 30.18 in 7.0 mi West 5.8 mph - N/A   Clear
4:35 PM 12.7 °F 5.0 °F 6.8 °F 77% 30.18 in 7.0 mi West 4.6 mph - N/A   Clear
4:55 PM 12.7 °F 6.7 °F 7.7 °F 80% 30.19 in 7.0 mi West 3.5 mph - N/A   Clear
5:15 PM 12.7 °F 5.0 °F 7.7 °F 80% 30.19 in 10.0 mi West 4.6 mph - N/A   Clear
5:35 PM 10.2 °F 2.0 °F 5.9 °F 83% 30.19 in 10.0 mi West 4.6 mph - N/A   Clear
5:55 PM 10.2 °F 3.8 °F 5.9 °F 83% 30.19 in 10.0 mi West 3.5 mph - N/A   Clear
6:15 PM 10.2 °F 2.0 °F 5.9 °F 83% 30.20 in 10.0 mi WSW 4.6 mph - N/A   Clear
6:35 PM 8.6 °F -1.3 °F 5.2 °F 86% 30.20 in 10.0 mi WSW 5.8 mph - N/A   Clear
6:55 PM 9.5 °F 1.2 °F 5.5 °F 84% 30.21 in 10.0 mi WSW 4.6 mph - N/A   Clear
7:15 PM 9.0 °F 2.4 °F 5.0 °F 84% 30.21 in 10.0 mi WSW 3.5 mph - N/A   Clear
7:35 PM 8.6 °F 0.1 °F 4.5 °F 83% 30.21 in 10.0 mi SW 4.6 mph - N/A   Clear
7:55 PM 7.7 °F 1.0 °F 4.1 °F 85% 30.21 in 10.0 mi SW 3.5 mph - N/A   Clear
8:15 PM 7.7 °F - 4.1 °F 85% 30.21 in 7.0 mi Calm Calm - N/A   Clear
8:35 PM 7.7 °F -0.9 °F 4.1 °F 85% 30.21 in 7.0 mi WSW 4.6 mph - N/A   Clear
8:55 PM 7.7 °F - 3.2 °F 82% 30.22 in 7.0 mi Calm Calm - N/A   Clear
9:15 PM 7.7 °F - 4.1 °F 85% 30.21 in 7.0 mi Calm Calm - N/A   Clear
9:35 PM 7.7 °F 1.0 °F 4.1 °F 85% 30.21 in 7.0 mi SSW 3.5 mph - N/A   Clear
9:55 PM 7.7 °F 1.0 °F 4.5 °F 87% 30.22 in 7.0 mi SSW 3.5 mph - N/A   Clear
10:15 PM 5.4 °F - 2.1 °F 86% 30.23 in 7.0 mi Calm Calm - N/A   Clear
10:35 PM 7.7 °F - 4.5 °F 87% 30.24 in 7.0 mi Calm Calm - N/A   Clear
10:55 PM 7.7 °F 1.0 °F 4.5 °F 87% 30.24 in 7.0 mi WNW 3.5 mph - N/A   Clear
11:15 PM 5.0 °F -2.1 °F 1.8 °F 86% 30.25 in 7.0 mi West 3.5 mph - N/A   Clear
11:35 PM 5.0 °F - 1.8 °F 86% 30.24 in 7.0 mi Calm Calm - N/A   Clear
11:55 PM 5.0 °F - 1.9 °F 87% 30.23 in 5.0 mi Calm Calm - N/A   Clear